Current weather by "City, St" or "zip code"  
 

Current Conditions: Syracuse, Syracuse Hancock International Airport, NY

Mostly Cloudy


70.0 F

Last Updated on May 21 2022, 5:54 am EDT
Humidity: 76%
Wind Speed: S 5.8 mph
Barometer 29.86 in
Dewpoint: 62.1 F
Visibility: 10.00 mi
Precip: --
Heat Index: NA
Wind Chill: NA
Current conditions at:

Syracuse, Syracuse Hancock International Airport, NY (KSYR)

Lat: 43.10917 Lon: 76.10333

Local Radar Image active severe weather and emergency alerts image image weather storm and storm spotter reports image weather observation monitoring service image
Local
Radar
Active
Alerts
Storm Reports Obs
Monitoring

Sign-up For Email & Text Message Weather Alert Notification Services



Advertise Here

Observation History for Syracuse, Syracuse Hancock International Airport, NY


Time Wind
(mph)
Vis
(mi)
Weather Precip (in) Temperature (F) Relative
Humidity
Wind
Chill
(F)
Heat
Index
(F)
Pressure
Air Dwpt altimeter
(in)
sea level
(mb)
Rmks
5:54 am EDT S 5.8 10.00 Mostly Cloudy -- 70.0 62.1 76% NA NA 29.86 1010.6
4:54 am EDT S 8.1 10.00 Mostly Cloudy -- 71.0 62.1 73% NA NA 29.84 1009.7
3:54 am EDT S 8.1 10.00 A Few Clouds -- 71.0 62.1 73% NA NA 29.82 1009.1
2:54 am EDT S 9.2 10.00 Partly Cloudy -- 71.0 62.1 73% NA NA 29.80 1008.7
1:54 am EDT S 10.4 10.00 Partly Cloudy -- 71.0 62.1 73% NA NA 29.81 1009.0
12:54 am EDT S 10.4 10.00 Partly Cloudy -- 71.0 62.1 73% NA NA 29.82 1009.3
11:54 pm EDT S 6.9 10.00 Partly Cloudy -- 71.0 62.1 73% NA NA 29.83 1009.6
10:54 pm EDT S 8.1 10.00 Mostly Cloudy -- 71.0 62.1 73% NA NA 29.83 1009.4
9:54 pm EDT S 10.4 10.00 Mostly Cloudy -- 72.0 61.0 68% NA NA 29.80 1008.4
8:54 pm EDT S 12.7 10.00 Mostly Cloudy -- 73.0 60.1 64% NA NA 29.78 1008.0
7:54 pm EDT S 13.8 10.00 Overcast -- 76.0 59.0 56% NA NA 29.76 1007.3
5:54 pm EDT S 13.8 10.00 Mostly Cloudy -- 80.0 57.9 47% NA 81 29.72 1006.1
4:54 pm EDT S 15.0 10.00 Mostly Cloudy -- 82.0 59.0 46% NA 82 29.72 1005.9
3:54 pm EDT S 11.5 10.00 Mostly Cloudy -- 79.0 59.0 50% NA NA 29.73 1006.4
2:54 pm EDT SE 16.1 10.00 Mostly Cloudy Trace 77.0 59.0 54% NA NA 29.76 1007.3
11:54 am EDT S 12.7 G 23.0 10.00 Mostly Cloudy -- 77.0 57.0 50% NA NA 29.79 1008.3
10:54 am EDT S 10.4 10.00 Mostly Cloudy -- 73.0 55.9 55% NA NA 29.79 1008.4
9:54 am EDT E 10.4 10.00 Mostly Cloudy -- 71.0 57.9 63% NA NA 29.80 1008.9
8:54 am EDT E 6.9 10.00 Mostly Cloudy -- 62.0 54.0 75% 62 NA 29.80 1008.9
7:54 am EDT E 4.6 10.00 Mostly Cloudy -- 56.0 51.1 84% 55 NA 29.82 1009.3

Regional Weather Observation


Fulton, Oswego County Airport, NY (KFZY)

Fair
71.0 F

Watertown, Watertown International Airport, NY (KART)

Overcast
76.0 F

Skaneateles Aero Drome, NY (K6B9)

Fair
72.0 F

Griffiss Air Force Base / Rome, NY (KRME)

Fair
67.0 F

Williamson-Sodus Airport, NY (KSDC)

Fair
68.0 F

Cortland County-Chase Field, NY (KN03)

Fair
59.0 F

Advertise Here


Advertise Here